CAPE
0 0 0 0 0 1 0 0 0 0 0 0 0 0 0 0 0 0 0 0 0 0 0 0 0 0 0 0 0 0 0 0 0 0 0 0 0 0 0 0 0 0 0
0 0 0 1 0 0 0 0 0 0 0 0 0 0 0 0 0 0 0 0 0 0 0 0 0 0 0 0 0 0 0 0 0 0 0 0 0 0 0 0 0 0 0
0 0 0 0 0 0 0 0 0 0 0 0 0 0 0 0 0 0 0 0 0 0 0 0 0 0 0 0 0 0 0 0 0 0 0 0 0 0 0 0 0 0 0
0 0 0 0 0 0 0 0 0 0 0 0 0 0 0 0 0 0 0 0 0 0 0 0 0 0 0 0 0 0 0 0 0 0 0 0 0 0 0 0 0 0 0
0 0 0 0 0 0 0 0 0 0 0 0 0 0 0 0 0 0 0 0 0 0 0 0 0 0 0 0 0 0 0 0 0 0 0 0 0 0 0 0 0 0 0
0 0 0 0 0 0 0 0 0 0 0 0 0 0 0 0 0 0 0 0 0 0 0 0 0 0 0 0 0 0 0 0 0 0 0 0 0 0 0 0 0 0 0
0 0 0 0 0 0 0 0 0 0 0 0 0 0 0 0 0 0 0 0 0 0 0 0 0 0 0 0 0 0 0 0 0 0 0 0 0 0 0 0 1 0 0
0 0 0 0 0 0 0 0 0 0 0 0 0 0 0 0 0 0 0 0 0 0 0 0 0 0 0 0 0 0 0 0 0 0 0 0 0 0 1 0 0 0 1
0 0 0 0 0 0 0 0 0 0 0 0 0 0 0 0 0 0 0 0 0 0 0 0 0 0 0 0 0 0 0 0 0 0 0 0 0 0 1 0 0 0 0
0 0 0 0 0 0 0 0 0 0 0 0 0 0 0 0 0 0 0 0 0 0 0 0 0 0 0 0 0 0 0 0 0 0 0 0 0 0 0 0 0 0 0
0 0 0 0 0 0 0 0 0 0 0 0 0 0 0 0 0 0 0 0 0 0 0 0 0 0 0 0 0 0 0 0 0 0 0 0 1 1 1 1 0 0 0
0 0 0 0 0 0 0 0 0 0 0 0 0 0 0 0 0 0 0 0 0 0 0 0 0 0 1 0 0 0 1 0 0 0 1 0 0 0 0 0 0 0 0
0 0 0 0 0 0 0 0 0 0 0 0 0 0 0 0 0 0 0 1 0 0 0 0 0 0 0 1 2 3 1 0 0 0 1 0 0 0 0 0 0 0 0
0 0 0 0 0 0 0 0 0 0 0 0 0 0 0 0 0 0 0 0 1 1 0 1 1 0 0 0 0 1 0 0 0 0 2 0 0 0 0 0 0 0 0
0 0 0 0 0 0 0 0 0 0 0 0 0 0 0 0 0 0 0 0 0 0 1 2 2 0 0 1 1 0 0 0 0 0 0 0 0 0 0 0 0 0 0
0 0 0 0 0 0 0 0 0 0 0 0 0 0 0 0 0 0 0 0 0 1 2 2 3 0 0 0 0 0 0 0 0 0 1 1 0 0 0 0 0 0 0
0 0 0 0 0 0 0 0 0 0 0 0 0 0 0 0 0 0 0 0 5 2 2 2 0 0 0 0 0 0 0 0 0 0 0 0 0 0 0 0 0 0 0
0 0 0 0 0 0 0 0 0 0 0 0 0 0 0 0 0 0 2 4 2 1 2 0 0 0 0 0 0 0 0 0 0 0 0 0 0 0 0 0 0 0 0
0 0 0 0 0 0 0 0 0 0 0 0 0 0 0 2 1 2 3 2 2 1 2 2 1 0 0 0 0 0 0 0 0 0 0 0 0 0 0 0 0 0 0
0 0 0 0 0 0 0 0 0 0 0 0 0 0 0 0 2 1 0 2 1 0 0 0 0 0 0 0 0 0 0 0 0 0 0 0 0 0 0 0 0 0 0
0 0 0 0 0 0 0 2 1 2 2 2 0 0 0 0 1 1 0 0 1 0 0 0 0 0 0 0 0 0 0 0 0 0 0 0 0 0 0 0 0 0 0
0 0 0 0 0 0 0 0 0 0 0 0 0 0 1 0 0 0 0 0 0 0 0 0 0 0 0 0 0 0 0 0 0 0 0 0 0 0 0 0 0 0 0
0 0 0 0 0 0 0 0 0 0 0 0 0 0 0 0 0 0 0 0 0 0 0 0 0 0 0 0 0 0 0 0 0 0 0 0 0 0 0 0 0 0 0
0 0 0 0 0 0 0 0 0 0 0 0 0 0 0 0 0 0 0 0 0 0 0 0 0 0 0 0 0 0 0 0 0 0 0 0 0 0 0 0 0 0 0
0 0 0 0 0 0 0 0 0 0 0 1 1 0 0 0 0 0 0 0 0 0 0 0 0 0 0 0 0 0 0 0 0 0 0 0 0 0 0 0 0 0 0
0 0 0 0 0 0 0 0 0 0 0 0 0 0 0 0 0 0 0 0 0 0 0 0 0 0 0 0 0 0 0 0 0 0 0 0 0 0 0 0 0 0 0
CIN
0 0 0 0 -1 0 0 0 0 0 0 0 0 0 0 0 0 0 0 0 0 0 0 0 0 0 0 0 0 0 0 0 0 0 0 0 0 0 0 0 0 0 0
0 0 0 -1 -1 0 0 0 0 0 0 0 0 0 0 0 0 0 0 0 0 0 0 0 0 0 0 0 0 0 0 0 0 0 0 0 0 0 0 0 0 0 0
0 0 0 0 0 0 0 0 0 0 0 0 0 0 0 0 0 0 0 0 0 0 0 0 0 0 0 0 0 0 0 0 0 0 0 0 0 0 0 0 0 0 0
0 0 0 0 0 0 0 0 0 0 0 0 0 0 0 0 0 0 0 0 0 0 0 0 0 0 0 0 0 0 0 0 0 0 0 0 0 0 0 0 0 0 0
0 0 0 0 0 0 0 0 0 0 0 0 0 0 0 0 0 0 0 0 0 0 0 0 0 0 0 0 0 0 0 0 0 0 0 0 0 0 0 0 0 0 0
0 0 0 0 0 0 0 0 0 0 0 0 0 0 0 0 0 0 0 0 0 0 0 0 0 0 0 0 0 0 0 0 0 0 0 0 0 0 0 0 0 0 0
0 0 0 0 0 0 0 0 0 0 0 0 0 0 0 0 0 0 0 0 0 0 0 0 0 0 0 0 0 0 0 0 0 0 0 0 0 0 0 0 0 0 0
0 0 0 0 0 0 0 0 0 0 0 0 0 0 0 0 0 0 0 0 0 0 0 0 0 0 0 0 0 0 0 0 0 0 0 0 0 0 0 0 0 0 0
0 0 0 0 0 0 0 0 0 0 0 0 0 0 0 0 0 0 0 0 0 0 0 0 0 0 0 0 0 0 0 0 0 0 0 0 0 0 0 0 0 0 0
0 0 0 0 0 0 0 0 0 0 0 0 0 0 0 0 0 0 0 0 0 0 0 0 0 0 0 0 0 0 0 0 0 0 0 0 0 0 0 0 0 0 0
0 0 0 0 0 0 0 0 0 0 0 0 0 0 0 0 0 0 0 0 0 0 0 0 0 0 0 0 0 0 0 0 0 0 0 0 0 0 0 0 0 0 0
0 0 0 0 0 0 0 0 0 0 0 0 0 0 0 0 0 0 0 0 0 0 0 0 0 0 0 0 -1 0 0 -1 0 0 0 0 0 0 0 0 0 0 0
0 0 0 0 0 0 0 0 0 0 0 0 0 0 0 0 0 0 0 0 0 0 0 0 0 0 0 0 0 0 0 0 0 0 0 0 0 0 0 0 0 0 0
0 0 0 0 0 0 0 0 0 0 0 0 0 0 0 0 0 0 0 0 0 0 0 0 0 0 0 0 0 -1 0 0 0 0 0 0 0 0 0 0 0 0 0
0 0 0 0 0 0 0 0 0 0 0 0 0 0 0 0 0 0 0 0 0 0 0 0 0 0 0 0 0 0 0 0 0 0 0 0 0 0 0 0 0 0 0
0 0 0 0 0 0 0 0 0 0 0 0 0 0 0 0 0 0 0 0 0 0 0 0 0 0 0 0 0 0 0 0 0 0 0 0 0 0 0 0 0 0 0
0 0 0 0 0 0 0 0 0 0 0 0 0 0 0 0 0 0 0 0 0 0 0 0 0 0 0 0 0 0 0 0 0 0 0 0 0 0 0 0 0 0 0
0 0 0 0 0 0 0 0 0 0 0 0 0 0 0 0 0 0 0 0 0 0 0 0 0 0 0 0 0 0 0 0 0 0 0 0 0 0 0 0 0 0 0
0 0 0 0 0 0 0 0 0 0 0 0 0 0 0 0 0 0 0 0 0 0 0 0 0 0 0 0 0 0 0 0 0 0 0 0 0 0 0 0 0 0 0
0 0 0 0 0 0 0 0 0 0 0 0 0 0 0 0 0 0 0 0 0 0 0 0 0 0 0 0 0 0 0 0 0 0 0 0 0 0 0 0 0 0 0
0 0 0 0 0 0 0 0 0 0 0 0 0 0 0 0 0 0 0 0 0 0 0 0 0 0 0 0 0 0 0 0 0 0 0 0 0 0 0 0 0 0 0
0 0 0 0 0 0 0 0 0 0 0 0 0 0 0 0 0 0 0 0 0 0 0 0 0 0 0 0 0 0 0 0 0 0 0 0 0 0 0 0 0 0 0
0 0 0 0 0 0 0 0 0 0 0 0 0 0 0 0 0 0 0 0 0 0 0 0 0 0 0 0 0 0 0 0 0 0 0 0 0 0 0 0 0 0 0
0 0 0 0 0 0 0 0 0 0 0 0 0 0 0 0 0 0 0 0 0 0 0 0 0 0 0 0 0 0 0 0 0 0 0 0 0 0 0 0 0 0 0
0 0 0 0 0 0 0 0 0 0 0 0 0 0 0 0 0 0 0 0 0 0 0 0 0 0 0 0 0 0 0 0 0 0 0 0 0 0 0 0 0 0 0
0 0 0 0 0 0 0 0 0 0 0 0 0 0 0 0 0 0 0 0 0 0 0 0 0 0 0 0 0 0 0 0 0 0 0 0 0 0 0 0 0 0 0
Wind_Speed
31 29 29 28 28 28 28 26 24 24 22 21 20 18 17 17 16 15 13 11 12 12 12 13 14 14 16 17 18 20 21 23 25 24 23 23 25 27 29 30 31 33 34
31 31 31 30 28 27 26 26 25 25 23 22 20 20 18 17 16 15 14 13 13 13 12 13 14 14 16 17 18 19 21 21 23 24 22 23 24 26 29 30 32 32 34
28 26 27 31 29 27 26 25 25 24 23 22 21 21 19 19 17 15 14 14 13 13 12 12 12 13 15 17 17 19 20 21 21 21 23 22 24 25 29 29 31 33 34
26 27 26 28 33 30 27 26 25 25 23 24 23 21 21 18 17 15 15 14 14 13 13 12 12 13 15 16 17 18 19 19 19 20 22 23 23 25 27 31 33 34 35
24 25 27 27 29 31 28 27 26 26 25 23 22 21 20 19 17 15 14 13 13 13 13 13 13 14 14 14 17 18 17 19 19 21 22 23 24 27 30 30 33 35 35
20 23 25 26 27 29 30 29 28 27 24 23 22 21 19 19 17 15 14 15 13 13 14 14 14 13 14 15 16 16 18 18 19 21 22 23 25 26 27 30 33 37 38
19 19 23 24 26 28 28 27 26 24 23 23 21 21 20 20 16 16 15 15 15 14 15 14 15 14 15 14 14 16 17 16 16 18 21 22 24 24 26 29 31 33 34
19 21 21 22 23 23 24 26 25 22 20 19 20 19 19 19 17 15 14 14 15 14 16 15 15 15 13 15 16 17 18 16 16 17 19 21 21 22 23 25 28 30 30
23 23 22 22 23 22 21 21 20 21 21 19 17 17 17 17 15 14 15 16 17 18 17 17 17 17 15 16 17 18 19 17 17 17 19 20 20 19 20 23 28 32 35
22 23 24 24 25 24 23 21 20 19 20 19 19 19 18 18 18 16 17 18 19 19 20 19 18 18 18 16 17 18 21 20 18 18 21 21 19 19 18 18 23 28 30
25 24 23 25 24 24 22 21 18 17 17 18 20 20 20 18 17 17 18 21 22 22 21 19 19 17 17 17 17 18 20 19 19 20 21 21 20 19 18 17 18 22 25
24 25 24 23 23 22 21 21 21 20 20 21 22 21 21 21 22 21 21 22 21 22 21 20 19 18 17 19 18 18 18 18 19 21 22 22 22 22 20 17 18 19 19
24 24 24 23 22 22 22 22 22 22 24 25 24 23 24 23 23 22 22 22 22 22 21 20 20 19 21 20 19 19 19 18 20 21 22 22 22 21 19 21 19 19 21
25 24 23 22 22 21 20 21 23 23 24 25 26 26 25 25 25 24 23 22 22 21 21 22 21 23 23 23 22 20 20 18 21 22 23 22 21 21 21 20 22 22 24
24 23 23 22 21 21 21 21 22 23 24 26 27 27 28 29 26 24 23 22 21 21 22 23 28 31 28 25 23 21 21 21 22 22 23 23 23 22 21 21 21 22 24
26 26 25 23 22 22 22 23 23 25 25 26 26 25 26 26 24 23 23 22 22 21 24 31 33 30 27 25 24 24 23 23 23 23 23 23 23 22 22 21 21 22 23
27 27 26 25 26 25 24 24 26 24 24 24 25 25 25 26 25 23 22 22 22 24 30 32 31 27 27 26 26 25 25 23 22 24 24 23 23 23 23 23 22 22 23
28 28 27 27 27 26 27 26 26 27 28 28 25 25 25 25 25 24 23 25 28 28 30 31 30 28 27 27 27 27 25 24 23 24 24 24 24 24 24 24 22 22 22
30 29 29 28 28 28 27 27 27 27 28 29 28 26 26 25 25 25 25 29 30 31 31 32 30 28 28 28 28 27 27 27 26 26 25 25 24 24 24 23 23 22 22
31 31 31 31 31 31 30 29 30 30 30 30 30 29 26 25 27 28 27 29 30 32 34 33 30 30 30 30 30 29 30 30 29 28 27 25 24 24 24 23 22 24 24
32 33 33 33 33 33 33 34 34 34 34 33 32 30 28 28 29 29 30 31 33 34 33 32 31 33 32 33 32 32 32 32 31 30 28 27 26 26 24 23 23 22 22
34 35 35 36 36 36 36 36 36 37 37 37 36 33 32 31 33 34 35 36 36 34 33 33 34 33 33 33 33 34 34 34 32 31 30 28 27 26 25 24 24 24 24
35 37 37 38 39 39 39 38 39 39 39 39 39 38 36 36 37 36 36 36 35 35 34 34 36 37 35 34 34 34 35 35 33 31 31 30 28 28 26 26 26 26 25
37 38 40 40 40 41 41 42 41 41 41 41 40 40 39 39 38 38 38 37 36 36 36 36 37 38 38 37 37 37 36 35 33 32 31 31 30 28 28 27 27 26 24
40 41 42 43 43 44 44 44 44 44 43 43 42 41 40 39 39 39 38 38 38 38 38 37 37 38 37 37 36 36 34 33 32 31 30 30 29 28 27 27 25 25 24
41 41 42 42 43 44 45 45 46 45 45 43 43 42 41 41 40 40 39 39 38 38 38 37 37 36 36 35 34 33 32 31 30 29 28 28 28 27 26 26 26 24 23
Wind_Direction
264 263 264 266 266 268 269 269 270 274 271 266 267 266 274 283 290 291 282 280 287 297 308 315 322 332 337 339 341 343 346 346 345 351 356 358 357 359 360 0 2 3 4
272 268 268 268 269 266 267 267 269 271 269 265 260 264 269 275 281 281 273 275 281 289 299 310 318 328 332 336 337 341 345 347 347 345 353 356 357 358 358 358 360 2 2
277 275 271 272 271 268 268 267 269 270 269 263 262 267 262 273 277 276 270 271 279 286 294 303 313 320 326 331 335 340 342 345 350 351 350 355 356 358 357 358 358 0 2
277 278 276 276 276 275 273 271 270 270 267 264 259 261 271 266 274 271 267 270 278 286 294 302 309 316 322 328 333 336 342 345 347 347 348 350 352 355 356 354 354 359 359
282 278 278 280 280 278 277 275 273 271 269 261 259 259 264 266 266 263 261 265 272 283 291 301 307 313 319 328 329 333 338 341 341 341 343 346 348 350 350 353 352 354 356
288 283 282 282 282 281 280 279 277 274 270 263 258 260 262 264 262 258 256 263 269 277 285 296 303 310 316 320 326 333 335 334 334 337 340 341 344 348 351 351 351 353 353
296 293 288 285 285 285 285 283 279 274 270 263 257 258 261 266 257 256 259 266 271 278 285 290 297 303 310 316 321 324 327 328 331 335 335 339 342 347 350 349 350 351 351
295 295 294 293 292 290 286 284 281 277 269 255 259 257 263 263 253 251 257 268 276 278 283 288 294 300 303 311 315 316 320 323 326 330 333 337 342 347 349 350 350 349 351
294 293 294 293 293 292 290 288 283 277 271 263 260 259 263 263 249 250 258 272 277 281 284 288 293 298 301 305 309 311 315 317 323 327 331 334 339 344 348 349 346 347 348
295 294 294 293 293 291 290 287 283 279 270 269 266 269 265 266 263 258 265 274 276 280 287 289 289 296 300 300 302 306 308 313 317 322 327 332 337 341 344 346 346 345 347
303 300 297 296 294 294 293 292 287 280 273 266 269 273 272 268 260 262 267 276 279 282 285 286 291 291 300 299 297 300 306 314 315 319 325 328 333 337 339 342 344 344 344
308 304 300 297 296 294 292 292 288 282 276 272 273 273 273 273 273 269 270 278 281 282 284 290 295 295 296 296 295 297 301 306 311 315 319 323 327 330 334 339 341 341 342
319 315 310 306 302 297 291 288 285 281 277 275 272 271 271 273 275 274 273 275 281 283 287 292 295 299 298 293 291 295 297 300 305 309 313 318 323 329 335 335 337 341 341
323 322 320 316 310 303 298 295 289 283 279 276 274 274 274 274 275 274 274 274 275 278 285 292 296 300 298 294 293 291 296 296 301 305 310 316 323 326 326 331 334 337 338
327 326 324 321 317 313 306 299 292 289 283 281 280 278 277 277 274 273 272 271 271 275 284 291 295 298 293 292 291 291 294 297 298 302 306 310 315 319 322 327 330 333 333
328 328 327 325 323 319 315 309 303 298 293 288 288 283 283 285 282 272 270 270 273 277 284 291 295 292 288 288 287 291 293 295 298 301 304 306 310 313 317 322 326 328 329
332 331 330 328 324 321 318 313 309 306 302 295 290 289 288 287 285 278 271 269 272 278 285 291 292 287 286 285 287 291 293 294 298 300 301 304 306 309 313 316 319 323 326
334 333 331 328 325 322 318 315 312 309 305 303 297 294 289 288 286 282 276 278 281 279 284 289 287 285 284 284 288 291 293 295 297 299 299 301 302 305 308 311 314 317 322
332 333 331 329 327 324 321 319 315 312 309 307 306 299 290 289 287 285 282 281 282 284 287 288 286 284 284 286 290 292 292 293 295 297 297 298 299 300 303 307 310 315 318
330 329 328 326 325 323 322 319 317 315 312 310 308 304 300 292 288 285 283 283 284 288 292 292 286 286 287 288 289 290 291 291 291 292 293 294 296 296 298 300 303 308 311
326 326 325 323 322 320 318 317 316 314 312 311 308 306 301 295 293 289 287 286 286 289 290 290 290 290 288 289 288 288 289 290 289 290 291 292 292 293 294 297 301 303 307
324 323 322 320 319 318 317 316 314 313 311 310 309 307 303 298 295 293 292 291 292 291 290 289 289 291 288 286 287 288 288 288 289 288 290 290 290 291 292 292 295 300 302
322 321 320 319 318 317 316 315 314 312 311 310 309 307 305 302 299 298 296 295 295 294 293 292 291 291 290 289 287 287 288 287 287 287 287 287 287 288 288 289 292 296 297
319 318 317 317 317 316 315 314 313 313 312 311 309 308 306 305 303 302 301 300 298 297 296 295 294 292 291 290 289 288 288 288 287 286 285 285 285 285 286 288 290 293 293
317 316 316 315 314 313 313 312 311 311 310 309 309 308 308 307 306 306 305 303 302 301 300 298 297 296 294 293 292 291 290 289 289 288 287 286 285 285 285 287 288 290 291
316 316 315 315 315 314 313 312 311 311 310 309 308 308 307 307 307 306 306 306 305 304 303 302 301 299 298 296 295 293 292 290 288 287 286 284 284 284 285 285 285 289 289